Regional Weather Roundup
Issued by NWS

Home | Current Version | Previous Version | Graphics & Text | Print | Product List | Glossary On
Versions: 1 2 3 4 5 6 7 8 9 10 11 12 13 14 15 16 17 18 19 20 21 22 23 24 25 26 27 28 29 30 31 32 33 34 35 36 37 38 39 40 41 42 43 44 45 46 47 48 49 50
000
ASUS43 KDMX 060407
RWRIA

WEATHER ROUNDUP FOR IOWA
NATIONAL WEATHER SERVICE DES MOINES IA
1100 PM CDT SUN JUL 05 2015

NOTE: "FAIR" INDICATES FEW OR NO CLOUDS BELOW 12,000 FEET WITH NO
SIGNIFICANT WEATHER AND/OR OBSTRUCTIONS TO VISIBILITY.

* - THESE STATIONS ARE NOT NWS STATIONS...THUS NOT UNDER NWS
QUALITY CONTROL.  THEY ALSO DO NOT REPORT WEATHER SUCH
AS PRECIPITATION OR FOG.

IAZ001>003-012>014-020>022-031>034-043>046-060500-
   NORTHWEST IOWA

CITY           SKY/WX    TMP DP  RH WIND       PRES   REMARKS
CARROLL *      CLEAR     75  72  88 SE8       29.85R
CHEROKEE *     MOCLDY    77  72  83 S8        29.82S
DENISON *      HVY RAIN  77  73  88 SE16G25   29.80S
LE MARS *        N/A     79  73  83 SE13      29.79R HX  82
ORANGE CITY *  CLEAR     77  70  78 S8        29.80S
SHELDON *      CLEAR     79  72  78 SE12      29.81R HX  82
SIOUX CITY     CLOUDY    81  73  76 SE12      29.76R HX  86
SPENCER        PTCLDY    78  69  73 S13       29.82S HX  80
STORM LAKE *   CLEAR     75  72  88 SE9       29.85R
$$

IAZ055>058-069>071-079>083-090>094-060500-
   SOUTHWEST IOWA

CITY           SKY/WX    TMP DP  RH WIND       PRES   REMARKS
ATLANTIC *     CLEAR     81  73  78 S9G15     29.84R HX  85
AUDUBON *      CLEAR     77  72  83 S7        29.86R
CLARINDA *     CLEAR     81  81 100 S10       29.86R HX  91
COUNCIL BLFS * CLOUDY    81  75  83 S9        29.85R HX  86
CRESTON *      CLEAR     77  72  83 S12       29.88R
HARLAN  *      CLEAR     79  79 100 S14       29.86S HX  83
LAMONI         CLEAR     79  72  79 S9        29.89S HX  82
RED OAK *      CLEAR     81  73  78 S15       29.83R HX  85
SHENANDOAH *   CLEAR     82  75  78 SE14      29.83R HX  89
$$

IAZ047>049-059>061-072>074-084-060500-
   CENTRAL IOWA

CITY           SKY/WX    TMP DP  RH WIND       PRES   REMARKS
AMES           CLEAR     74  67  78 SE8       29.89R
ANKENY *       CLEAR     77  68  73 S9G16     29.88R
CHARITON *     CLEAR     75  70  83 S12       29.90R
DES MOINES     PTCLDY    78  68  71 S13       29.88R HX  80
GRINNELL*      CLEAR     73  68  83 SE10      29.92R
KNOXVILLE *    CLEAR     75  68  78 SE9       29.89R
MARSHALLTOWN   CLEAR     73  68  84 S8        29.90R
PELLA *        CLEAR     75  72  88 SE8       29.91R
PERRY *          N/A     75  68  78 SE7       29.87R
$$

IAZ004>006-015-016-023>025-035-036-060500-
   NORTH CENTRAL IOWA

CITY           SKY/WX    TMP DP  RH WIND       PRES   REMARKS
ALGONA *       CLEAR     75  70  83 S15       29.86S
CLARION *      CLEAR     75  66  73 S13G21    29.87S
ESTHERVILLE    MOCLDY    76  69  79 S13       29.84R
FORT DODGE *   CLEAR     77  66  69 SE9       29.87R
MASON CITY     CLEAR     73  67  81 S10       29.90R
FOREST CITY *  CLEAR     72  68  88 SE8       29.88S
IOWA FALLS *     N/A     73  68  83 S8        29.91R
$$

IAZ007>011-017>019-026>030-037>042-050>054-066-060500-
   NORTHEAST IOWA

CITY           SKY/WX    TMP DP  RH WIND       PRES   REMARKS
CEDAR RAPIDS   CLEAR     74  71  91 S9        29.92F
CHARLES CITY * CLEAR     73  72  94 S12       29.90S
CLINTON *      CLEAR     70  64  83 SE10      29.99F
DECORAH *        N/A    N/A N/A N/A MISG        N/A
DUBUQUE        CLEAR     69  65  86 S12       29.95F
MONTICELLO *   CLEAR     72  70  94 SE8       29.94S
OELWEIN *      CLEAR     72  70  94 S9G16     29.93
WATERLOO       CLEAR     76  69  79 S13       29.90R
$$

IAZ064-065-067-068-078-060500-
   EAST CENTRAL IOWA

CITY           SKY/WX    TMP DP  RH WIND       PRES   REMARKS
DAVENPORT      CLEAR     73  65  75 S8        29.97F
IOWA CITY      CLEAR     72  69  90 SE6       29.94F
MT. PLEASANT * CLEAR     75  66  73 SE9       29.94F
MUSCATINE *    CLEAR     73  68  83 S8        29.94F
QUAD CITIES    CLEAR     71  65  81 SE8       29.95F
$$

IAZ062-063-075>077-085>089-095>099-060500-
   SOUTHEAST IOWA

CITY           SKY/WX    TMP DP  RH WIND       PRES   REMARKS
BURLINGTON     CLEAR     75  69  81 SE10      29.96F
FAIRFIELD *    CLEAR     73  68  83 SE12      29.93F
FORT MADISON * CLEAR     73  68  83 SE10      29.96F
KEOKUK *       CLEAR     75  68  78 SE9G16    29.95F
OSKALOOSA *      N/A     72  68  88 SE8       29.92R
CENTERVILLE *  CLEAR     73  68  83 SE9       29.93F
OTTUMWA        CLEAR     75  69  81 S12       29.90F
WASHINGTON *   CLEAR     73  70  88 SE9       29.95S
$$

ABBREVIATIONS USED IN REMARKS
   TC - TEMPERATURES IN CELSIUS
  WCI - WIND CHILL INDEX
   HX - HEAT INDEX
  VSB - VISIBILITY
$$




USA.gov is the U.S. government's official web portal to all federal, state and local government web resources and services.